Location: Kailua
(21.4020°N, 157.7390°W)
Time: 20:19:14
(UTC-10:00)

Daily predictions for brighter satellites

Satellite Brightness Start Highest point End
(mag) Time Altitude Azimuth Time Altitude Azimuth Time Altitude Azimuth
METEOR-M 4.2 19:34:39 10° SSE 19:39:54 61° ENE 19:45:09 10° N
NOAA 12 4.4 19:34:52 10° S 19:40:10 76° WSW 19:45:30 10° NNW
HJ-1C 3.6 19:38:48 10° S 19:42:09 78° W 19:45:31 10° NNW
Spot 2 Rocket 3.7 19:37:14 10° S 19:42:15 80° WSW 19:47:19 10° NNW
Cosmos 2026 Rocket 4.3 19:40:08 10° SSE 19:45:49 44° E 19:51:34 10° NNE
Meteor 2-5 Rocket 4.4 19:42:03 10° SSW 19:47:39 61° W 19:53:09 10° N
USA 186 2.9 19:54:14 13° ESE 19:55:18 16° ENE 19:56:51 10° NE
GPS 2-12 Rocket1 3.2 19:52:03 10° WSW 19:56:26 56° S 20:00:54 10° E
SWIFT 2.3 19:53:45 10° W 19:57:57 74° S 20:01:46 12° E
ASTRO E2 3.7 19:57:15 10° NW 20:01:02 38° NNE 20:04:42 11° E
ERS-1 Rocket 4.5 19:59:03 12° ESE 20:02:04 19° ENE 20:05:31 10° NNE
DEBRIS 4.3 20:00:43 10° W 20:02:06 14° WSW 20:03:18 10° SSW
Cosmos 1743 Rocket 4.4 19:59:33 10° SSE 20:03:30 31° E 20:07:27 10° NNE
XTE 3.3 20:01:05 10° W 20:04:09 63° N 20:06:57 12° E
ALOS 2.6 19:59:53 10° SSE 20:04:21 47° ENE 20:08:50 10° N
Tiangong 1 2.0 20:02:15 10° SSW 20:04:57 27° SE 20:07:20 12° E
Cosmos 1655 Rocket 4.0 19:59:19 10° S 20:05:29 67° E 20:11:37 10° NNE
Resurs 01 Rocket 3.1 20:01:28 10° SSW 20:05:36 38° W 20:09:43 10° NNW
Aurora 2 Rocket 2.9 20:02:30 10° W 20:06:28 38° SSW 20:08:45 17° SE
Cosmos 1470 3.5 20:02:38 10° NNW 20:06:30 56° W 20:10:23 10° S
Cosmos 841 Rocket 3.8 20:05:54 10° NNW 20:11:06 69° WSW 20:16:18 10° S
Cosmos 1441 Rocket 4.1 20:13:12 17° SE 20:15:19 29° E 20:18:38 10° NNE
Palapa 6 Rocket 4.4 20:09:14 10° WSW 20:16:40 86° S 20:24:49 10° E
Cosmos 2221 2.4 20:15:57 10° N 20:20:14 87° ENE 20:24:33 10° S
Cosmos 1766 Rocket 4.1 20:18:37 10° SSW 20:23:00 60° W 20:27:22 10° N
deb Chang Zheng 4 3.7 20:19:50 10° NNE 20:24:03 52° ESE 20:28:17 10° S
Sakura Rocket 4.3 20:22:46 10° SSW 20:25:22 19° SSE 20:25:22 19° SSE
Cosmos 2219 4.4 20:25:20 21° ESE 20:25:56 21° ESE 20:30:08 10° NE
GENESIS II 4.2 20:23:41 10° NNW 20:27:43 83° WSW 20:30:02 24° SSE
ATLAS CENTAUR R/B 2.8 20:25:25 10° N 20:28:47 22° ENE 20:29:47 20° E
Delta 142 4.5 20:24:34 10° WNW 20:29:07 52° NNE 20:33:15 18° E
Cosmos 1939 Rocket 4.0 20:36:16 25° E 20:36:32 25° ENE 20:39:48 10° NNE
NOSS 3-1 (C) 4.0 20:37:51 28° SE 20:38:57 30° ESE 20:44:00 10° NE
Centaur AC-119 4.2 20:42:30 10° SSW 20:42:41 11° SSW 20:42:41 11° SSW
Cosmos 1515 Rocket 4.3 20:44:25 10° NNE 20:48:25 34° E 20:48:25 34° E
Cosmos 2322 Rocket 2.7 20:45:13 10° N 20:50:29 41° ENE 20:51:52 35° ESE
Cosmos 1674 3.1 20:54:36 46° ENE 20:54:36 46° ENE 20:57:46 10° NNE
Hubble Space Telescope 3.2 20:54:46 10° SSW 20:55:06 12° SSW 20:55:06 12° SSW
Cosmos 2151 3.9 20:59:53 32° ENE 20:59:53 32° ENE 21:02:41 10° NNE
CZ-4B R/B 4.0 20:54:48 10° NNE 20:59:25 39° E 20:59:25 39° E
YAOGAN 11 4.4 20:57:58 31° S 20:59:49 60° WSW 21:04:04 10° NNW
SL-16 R/B 2.5 20:54:30 10° N 20:59:57 47° ENE 21:01:03 42° ESE
Cosmos 1980 Rocket 3.0 20:55:07 10° NNW 21:00:33 48° WSW 21:04:10 21° S
Cosmos 2360 Rocket 4.0 20:57:53 10° NNE 21:01:00 15° ENE 21:01:00 15° ENE
ATLAS 5 CENTAUR R/B 2.7 21:02:19 10° WSW 21:05:26 29° S 21:05:26 29° S
Cosmos 2266 Rocket 3.9 21:02:10 27° S 21:05:51 76° E 21:12:06 10° N
Cosmos 540 Rocket 4.0 21:01:45 10° NNW 21:06:47 54° WSW 21:09:06 30° SSW
Cosmos 1437 Rocket 4.0 21:04:51 10° NNE 21:07:05 29° NE 21:07:05 29° NE
Cosmos 332 Rocket 4.1 21:05:25 10° NNW 21:10:12 64° WSW 21:11:36 43° SSW
BREEZE-M DEB (TANK) 4.0 21:04:26 10° SSW 21:08:29 29° SSW 21:08:29 29° SSW
Meteor 2-20 Rocket 4.3 21:10:12 33° S 21:13:10 83° E 21:19:19 10° N
Cosmos 1151 Rocket 4.2 21:13:29 10° NNE 21:16:09 31° NE 21:16:09 31° NE
Cosmos 1553 Rocket 4.1 21:12:10 10° N 21:18:30 74° W 21:21:21 34° S
Meteor 2-2 Rocket 4.3 21:13:32 10° N 21:19:31 68° E 21:20:20 60° SE
OAO 2 Rocket 3.7 21:14:20 10° WSW 21:19:36 65° NNW 21:22:42 25° NE
H-2A R/B 2.3 21:22:28 64° SW 21:22:46 66° WSW 21:27:16 10° NNW
Envisat 3.0 21:31:14 72° SW 21:31:30 74° WSW 21:36:34 10° NNW
Ariane H10+ 4.1 21:31:48 10° SW 21:59:13 12° ESE 22:03:00 10° ESE
Ariane H10+ 4.1 21:31:48 10° SW 21:59:12 12° ESE 22:03:00 10° ESE
SWIFT 4.4 21:35:54 10° W 21:37:27 20° WSW 21:37:27 20° WSW
GPS 2-12 Rocket1 4.3 21:35:22 10° W 21:37:57 34° W 21:37:57 34° W
ERS-1 Rocket 4.4 21:39:04 26° SW 21:40:31 30° W 21:44:55 10° NW
NOSS 3-1 (A) 3.3 21:41:54 68° NE 21:41:54 68° NE 21:47:10 10° NNE
Tiangong 1 4.4 21:39:15 10° W 21:39:38 12° WNW 21:39:38 12° WNW
SPOT 5 3.4 21:43:38 51° NW 21:43:38 51° NW 21:47:09 10° NNW
Nadezhda 2 Rocket 4.5 21:42:50 64° SSW 21:43:45 78° W 21:49:53 10° N
Cosmos 371 Rocket 4.4 21:42:09 10° NW 21:46:30 37° W 21:46:30 37° W
ARGOS 4.0 22:00:22 42° NNE 22:00:22 42° NNE 22:04:01 10° N
H-2A R/B 4.0 22:02:35 20° NNE 22:02:35 20° NNE 22:04:42 10° NNE
ATLAS 2AS CENTAUR R/B 4.3 22:07:20 23° NE 22:07:20 23° NE 22:10:19 10° NE
Palapa 6 Rocket 4.4 21:58:33 10° W 22:06:32 81° N 22:07:07 76° NE
ATLAS CENTAUR R/B 4.1 22:04:53 10° WNW 22:06:09 14° W 22:06:09 14° W
Cosmos 2322 Rocket 4.4 22:30:48 10° WNW 22:33:42 16° W 22:33:42 16° W
Terra 4.4 22:48:02 17° N 22:48:02 17° N 22:49:05 10° N
Cosmos 2360 Rocket 3.8 22:39:48 10° NNW 22:42:47 29° NW 22:42:47 29° NW
Cosmos 2227 Rocket 4.3 23:03:04 21° N 23:03:04 21° N 23:04:57 10° N
Cosmos 2333 Rocket 4.5 23:11:34 10° N 23:13:11 19° N 23:13:11 19° N
